Weather in Florence

Italy     43°46′47″N   11°15′56″E
temp.,
°C
wind,
m/s
gust,
m/s
humid.,
%
clouds,
%
prec.,
mm/h
press.,
hPa
HPBL,
m
13 may, thu
thu1323:00+11se118864 0.0 101022
02:00+10se228699 0.0 100941
05:00+9se118780 0.0 100833
08:00+12sse1272100 0.0 1007240
11:00+13s2465100 0.0 1008418
14:00+14wsw698529 1.2 10071085
17:00+15w611492 0.3 10071305
20:00+13wsw497311 0.3 10081054
14 may, fri
fri1423:00+13wsw51177100 0.1 10091119
02:00+12sw61277100 0.3 10091201
05:00+12sw5119596 1.0 1008858
08:00+12sw499266 2.3 1010785
11:00+16wsw4871100 1.6 10101478
14:00+18w4646100 1.8 10101940
17:00+14s4887100 1.6 1009815
20:00+12sse2596100 4.3 1010303
15 may, sat
sat1523:00+12nne1196100 4.3 101178
02:00+11wnw119677 5.1 101030
05:00+11ssw0096100 0.0 101140
08:00+12w129263 0.0 1012278
11:00+17wsw226315 0.0 1012906
14:00+16wsw6771100 0.5 10121259
17:00+16wsw6956100 0.1 10121355
20:00+13wsw498579 0.3 1012968
16 may, sun
sun1623:00+13sse2392100 0.3 1012189
02:00+12sse2581100 0.3 1011153
05:00+13s2669100 0.0 1010251
08:00+14s2666100 0.1 1010264
11:00+15ssw1473100 0.0 1011316
14:00+18sw3767100 0.1 1010741
17:00+19wsw51163100 0.1 10101454
20:00+16wsw397798 0.2 1010929
17 may, mon
mon1723:00+14sw29815 0.0 1009441
02:00+13sw3108662 0.0 1008392
05:00+13wsw613837 0.1 1008930
08:00+15wsw614725 0.1 10081559
11:00+18wsw815485 0.1 10091833
14:00+18wsw813436 0.1 10081789
17:00+17wsw71256100 0.0 10081725
20:00+14wsw6137146 0.1 10091322